[[{"header":{"parameterUnit":"m.s-1","parameterCategory":1,"la1":30.2991,"la2":30.254,"lo1":-89.0895,"lo2":-89.0444,"dy":0.0017,"dx":0.0017,"nx":28,"ny":28,"refTime":"2025-04-07T03:00:00:Z","depth":0,"parameterNumber":2,"parameterNumberName":"U-component_of_WINDS"},"data":[0,0,0,0,0,0,0,0,0,0,0,0,0,0,0,0,0,0,0,0,0,0,0,0,0,0,0,0,0,0,0,0,0,0,0,0,0,0,0,0,0,0,0,0,0,0,0,0,0,0,0,0,0,0,0,0,0,0,1.9328,1.9329,0,1.9369,1.9369,1.937,1.934,1.9339,1.9338,1.9336,1.9382,1.9384,1.9386,0,0,0,0,0,0,0,0,0,0,0,0,0,1.923,1.9232,1.9328,1.9329,1.9329,1.9369,1.9369,1.937,1.9341,1.9339,1.9337,1.9336,1.9381,1.9384,1.9387,0,0,0,0,0,0,0,0,0,0,0,0,0,1.9272,1.9232,1.9328,1.9319,1.9319,1.9369,1.9369,1.937,1.9341,1.9339,1.9337,1.9335,1.938,1.9383,1.9387,1.9449,0,0,1.9398,1.94,0,0,0,0,0,0,0,0,1.927,1.9276,1.932,1.932,1.9319,1.9347,1.9351,1.9397,1.9341,1.9333,1.9336,1.9334,1.9372,1.9376,1.9388,1.9451,1.9453,1.9398,1.9401,1.9402,1.9403,0,0,0,0,0,0,0,1.9267,1.9274,1.9344,1.9321,1.932,1.9315,1.9319,1.936,1.9363,1.9333,1.9331,1.9336,1.9372,1.9385,1.9389,1.9454,1.9398,1.9402,1.9404,1.9405,1.9573,1.9575,0,0,0,0,0,0,1.9264,1.9271,1.9343,1.9346,1.9289,1.9318,1.9322,1.9341,1.9362,1.9364,1.9338,1.9335,1.938,1.9385,1.9391,1.9467,1.9402,1.9406,1.9408,1.9571,1.9573,1.9576,0,0,0,0,0,0,1.9262,1.9271,1.9341,1.9308,1.9317,1.9322,1.9343,1.9342,1.9355,1.9366,1.9367,1.935,1.9378,1.9386,1.9435,1.9468,1.9407,1.9411,1.9568,1.9571,1.9575,1.9618,0,0,0,0,0,0,1.9259,1.927,1.9292,1.9309,1.9318,1.9384,1.9344,1.9345,1.9361,1.9358,1.9378,1.938,1.9377,1.943,1.9439,1.9472,1.9413,1.9565,1.9569,1.9573,1.9614,1.9622,1.963,0,0,0,0,0,1.9256,1.9303,1.9294,1.9302,1.9346,1.9386,1.9391,1.9387,1.9364,1.9388,1.9395,1.9379,1.9463,1.9435,1.9445,1.948,1.9563,1.9568,1.9573,1.961,1.9621,1.963,0,0,0,0,0,0,1.9291,1.9305,1.9295,1.9348,1.9366,1.938,1.941,1.9398,1.9423,1.9419,1.9413,1.9418,1.9471,1.948,1.9449,1.9542,1.9509,1.9517,1.9534,1.9544,1.9552,1.955,1.9416,0,0,0,0,0,1.9305,1.9334,1.9345,1.9392,1.9401,1.9404,1.9421,1.9416,1.9435,1.9443,1.9453,1.9473,1.9504,1.9525,1.9554,1.9615,1.962,1.9644,1.9652,1.9658,1.9665,1.9701,1.9712,1.9592,1.9592,1.9592,0,0,1.9334,1.9345,1.9364,1.9399,1.9412,1.9445,1.9411,1.9446,1.9471,1.9448,1.9496,1.9505,1.9527,1.9583,1.9609,1.9593,1.97,1.9665,1.967,1.9673,1.9708,1.9719,1.9729,1.9596,1.9595,1.9595,0,0,1.9403,1.9414,1.9455,1.9469,1.949,1.9492,1.9502,1.9519,1.9524,1.9571,1.9556,1.9586,1.9639,1.9656,1.9672,1.9751,1.9739,1.9761,1.9804,1.9839,1.9848,1.9857,1.9887,1.9898,1.9767,1.9768,1.9768,0,1.9437,1.9484,1.9478,1.9515,1.9532,1.9513,1.9556,1.957,1.96,1.9613,1.9594,1.9662,1.9675,1.9736,1.9756,1.9769,1.9782,1.9759,1.9847,1.9856,1.9863,1.9893,1.9904,1.977,1.977,1.977,1.9769,0,1.9526,1.956,1.959,1.9619,1.964,1.9679,1.9681,1.9703,1.9697,1.9702,1.9752,1.9768,1.9801,1.9815,1.9809,1.9876,1.9866,1.9848,1.9815,1.9878,1.9905,1.9916,1.9774,1.9773,1.9772,1.9772,0,0,1.9618,1.9644,1.9656,1.967,1.9692,1.9718,1.9759,1.979,1.981,1.9832,1.9867,1.9913,1.9897,1.9915,1.9912,1.9942,2.0007,1.992,1.9921,1.9937,2.0085,2.01,2.0113,1.9999,2.0001,2.0002,2.0084,0,1.9691,1.9759,1.9756,1.9821,1.9854,1.9837,1.9873,1.9891,1.9898,1.9927,1.9934,1.9968,1.9943,1.9954,1.9984,1.9993,2.0037,1.9987,2.0033,2.0035,2.0029,2.0127,2.0142,2.0218,2.0094,2.0096,2.0097,0,1.9784,1.9809,1.9877,1.9897,1.9911,1.9942,1.9973,2.0,2.0023,2.0025,2.0046,2.0039,2.0082,2.0048,2.0108,2.0074,2.0094,2.0101,2.0104,2.0109,2.0071,2.0136,2.0242,2.0254,2.0114,2.0113,2.0111,0,1.9846,1.9897,1.9945,1.9958,1.9981,2.0005,2.0016,2.0036,2.0056,2.0083,2.0097,2.0129,2.0147,2.0172,2.0175,2.0149,2.0237,2.0202,2.0242,2.0242,2.0262,2.0261,2.0374,2.0272,2.0272,2.0272,2.0272,0,1.9928,1.9971,1.9974,2.0004,2.0053,2.0049,2.0098,2.0108,2.0126,2.0159,2.0147,2.0179,2.0179,2.0212,2.0214,2.0265,2.0273,2.0278,2.0278,2.028,2.0279,2.0293,2.0288,2.0275,2.0274,2.0274,2.0273,0,2.0006,2.0009,2.0061,2.008,2.0086,2.0122,2.0139,2.0169,2.0174,2.0216,2.0226,2.0236,2.0274,2.0278,2.0323,2.0325,2.0388,2.0381,2.038,2.0379,2.042,2.0417,2.0547,2.0565,2.045,2.0451,2.0452,0,2.0059,2.0092,2.0115,2.0136,2.0148,2.0182,2.0203,2.0202,2.0224,2.0253,2.028,2.0317,2.0347,2.0409,2.0421,2.0456,2.0452,2.0495,2.0457,2.0458,2.0455,2.0453,2.0458,2.0503,2.0504,2.0505,2.0506,0,2.0152,2.0153,2.0183,2.0214,2.024,2.0264,2.0288,2.0306,2.0308,2.0334,2.0373,2.0396,2.0443,2.0481,2.0515,2.0529,2.0519,2.0518,2.0529,2.0532,2.053,2.0534,2.0402,2.0515,2.0514,2.0513,2.0513,2.0512,2.022,2.025,2.0271,2.0306,2.0324,2.0346,2.0376,2.0386,2.0418,2.0455,2.0452,2.0496,2.052,2.0566,2.0582,2.0618,2.0604,2.062,2.0624,2.0628,2.0634,2.0524,2.0624,2.0624,2.0623,2.0623,2.0623,0,2.0315,2.0328,2.036,2.0394,2.0422,2.0409,2.0435,2.046,2.0498,2.052,2.055,2.0597,2.0634,2.0649,2.0687,2.0712,2.0709,2.0722,2.0721,2.0725,2.0643,2.063,2.0725,2.0725,2.0724,2.0724,2.0724,2.0724,2.0367,2.0418,2.0421,2.0481,2.0494,2.0537,2.0553,2.0575,2.0593,2.0645,2.0676,2.0686,2.0707,2.0745,2.078,2.0784,2.0799,2.0815,2.0817,2.074,2.073,2.072,2.0708,2.0818,2.0818,2.0896,2.0897,2.0897]},{"header":{"parameterUnit":"m.s-1","parameterCategory":1,"la1":30.2991,"la2":30.254,"lo1":-89.0895,"lo2":-89.0444,"dy":0.0017,"dx":0.0017,"nx":28,"ny":28,"refTime":"2025-04-07T03:00:00:Z","depth":0,"parameterNumber":3,"parameterNumberName":"V-component_of_WINDS"},"data":[0,0,0,0,0,0,0,0,0,0,0,0,0,0,0,0,0,0,0,0,0,0,0,0,0,0,0,0,0,0,0,0,0,0,0,0,0,0,0,0,0,0,0,0,0,0,0,0,0,0,0,0,0,0,0,0,0,0,6.3275,6.3278,0,6.3635,6.3639,6.3643,6.3763,6.3761,6.376,6.3758,6.4124,6.4135,6.4146,0,0,0,0,0,0,0,0,0,0,0,0,0,6.2687,6.2697,6.3274,6.3279,6.3283,6.3634,6.3639,6.3644,6.3763,6.3761,6.3759,6.3758,6.412,6.4133,6.4147,0,0,0,0,0,0,0,0,0,0,0,0,0,6.2984,6.2701,6.3273,6.3385,6.3399,6.3634,6.364,6.3646,6.3763,6.3761,6.3759,6.3757,6.4116,6.4132,6.4148,6.4297,0,0,6.42,6.4207,0,0,0,0,0,0,0,0,6.2967,6.3006,6.3364,6.3378,6.3393,6.3652,6.3567,6.3864,6.3764,6.3625,6.3758,6.3756,6.3968,6.3997,6.407,6.4315,6.433,6.4201,6.4211,6.4218,6.4223,0,0,0,0,0,0,0,6.2947,6.2991,6.3417,6.3369,6.3387,6.3417,6.3456,6.3624,6.3805,6.3637,6.3646,6.3688,6.3976,6.4053,6.4079,6.4336,6.4201,6.4215,6.4226,6.4232,6.4727,6.473,0,0,0,0,0,0,6.2908,6.2973,6.3405,6.3428,6.317,6.3429,6.3473,6.3571,6.3803,6.3837,6.3689,6.3692,6.4026,6.4059,6.4092,6.4287,6.4218,6.4234,6.4243,6.4724,6.4728,6.4731,0,0,0,0,0,0,6.2894,6.2945,6.3391,6.3203,6.3262,6.3442,6.355,6.3579,6.3657,6.3843,6.3876,6.3735,6.4025,6.4069,6.4247,6.4301,6.4241,6.4257,6.472,6.4725,6.473,6.4673,0,0,0,0,0,0,6.2877,6.294,6.2998,6.3204,6.3272,6.354,6.3553,6.3588,6.3686,6.3693,6.3895,6.3926,6.4027,6.4222,6.4264,6.4323,6.427,6.4716,6.4723,6.4728,6.4671,6.4675,6.4679,0,0,0,0,0,6.2856,6.2965,6.3,6.3052,6.3349,6.3542,6.3581,6.3696,6.3689,6.375,6.3871,6.3919,6.4287,6.4239,6.4287,6.4352,6.4714,6.4721,6.4728,6.4669,6.4674,6.4679,0,0,0,0,0,0,6.2758,6.2994,6.3035,6.3215,6.3358,6.3562,6.3642,6.3697,6.3844,6.3844,6.3979,6.4024,6.4193,6.429,6.4232,6.4511,6.4503,6.452,6.4442,6.4449,6.4452,6.4426,6.4284,0,0,0,0,0,6.2758,6.2897,6.3095,6.3234,6.3304,6.346,6.3549,6.3626,6.3779,6.3839,6.3973,6.4119,6.4268,6.4363,6.451,6.4685,6.4733,6.4754,6.4757,6.476,6.4774,6.4878,6.4891,6.4754,6.4754,6.4754,0,0,6.2758,6.2904,6.2983,6.3218,6.3338,6.348,6.351,6.3657,6.3763,6.3861,6.404,6.4143,6.4315,6.4493,6.4578,6.4579,6.4822,6.4769,6.4769,6.4782,6.4887,6.49,6.4911,6.4759,6.4758,6.4757,0,0,6.2832,6.2954,6.3087,6.3208,6.339,6.3495,6.3526,6.3724,6.3797,6.3978,6.4056,6.4184,6.4437,6.4558,6.4653,6.4777,6.4829,6.4821,6.4842,6.4942,6.4953,6.4963,6.5012,6.5027,6.4833,6.4833,6.4833,0,6.2808,6.3025,6.3147,6.3293,6.3395,6.3493,6.3629,6.3739,6.3959,6.4028,6.4026,6.435,6.4472,6.4683,6.4714,6.4786,6.4828,6.4799,6.4942,6.4953,6.4965,6.5012,6.503,6.4831,6.4832,6.4832,6.4832,0,6.299,6.3139,6.3224,6.3438,6.355,6.3689,6.3833,6.3932,6.3999,6.4104,6.4289,6.444,6.4622,6.4677,6.4743,6.4899,6.4895,6.4915,6.491,6.4974,6.5021,6.504,6.4829,6.4829,6.483,6.483,0,0,6.301,6.3294,6.3323,6.3424,6.3634,6.3752,6.3897,6.4077,6.4161,6.431,6.4436,6.465,6.4673,6.478,6.4861,6.4948,6.5043,6.496,6.4966,6.4973,6.5229,6.5214,6.5233,6.5078,6.5082,6.5085,6.5216,0,6.3114,6.3379,6.3495,6.3707,6.3849,6.3946,6.4073,6.4216,6.4318,6.4453,6.4565,6.4717,6.4732,6.4799,6.4889,6.5012,6.5096,6.5004,6.5199,6.5204,6.5156,6.5257,6.5241,6.5357,6.5235,6.5238,6.524,0,6.3269,6.3423,6.365,6.3849,6.3913,6.4024,6.4202,6.4329,6.4494,6.4563,6.4685,6.4763,6.492,6.4903,6.5124,6.5058,6.5145,6.5218,6.5225,6.525,6.5227,6.5288,6.5397,6.5415,6.5269,6.5267,6.5265,0,6.3266,6.353,6.3702,6.3784,6.4018,6.4096,6.4197,6.436,6.4463,6.4617,6.4686,6.4855,6.4948,6.5078,6.5201,6.5176,6.5411,6.5403,6.5474,6.5471,6.5521,6.5516,6.5648,6.5571,6.5571,6.557,6.557,0,6.3371,6.3507,6.3704,6.381,6.3966,6.4099,6.425,6.4358,6.4503,6.4633,6.4725,6.4844,6.4997,6.5136,6.5232,6.5403,6.5443,6.5504,6.5529,6.5498,6.5491,6.5558,6.5555,6.5575,6.5574,6.5573,6.5572,0,6.3395,6.3532,6.3726,6.3934,6.399,6.4096,6.4274,6.4381,6.4489,6.4652,6.4697,6.4866,6.5035,6.517,6.5389,6.5455,6.5635,6.566,6.558,6.5593,6.5658,6.5651,6.5841,6.5874,6.577,6.5771,6.5771,0,6.3454,6.3562,6.3783,6.3878,6.3979,6.4128,6.4235,6.437,6.4478,6.4677,6.476,6.4937,6.5085,6.535,6.5493,6.5662,6.5695,6.575,6.5721,6.5688,6.5701,6.5694,6.5708,6.5753,6.5754,6.5754,6.5754,0,6.3546,6.361,6.3761,6.3937,6.4063,6.4207,6.4353,6.4425,6.4587,6.4703,6.4879,6.4994,6.5221,6.5395,6.5581,6.5685,6.5748,6.5762,6.5789,6.5759,6.571,6.5742,6.5592,6.5758,6.5757,6.5757,6.5757,6.5757,6.3592,6.3695,6.3868,6.4034,6.416,6.4296,6.4408,6.4532,6.4681,6.4878,6.4948,6.5129,6.5296,6.5552,6.5658,6.5803,6.5808,6.5844,6.5854,6.5862,6.5861,6.5685,6.5836,6.5836,6.5836,6.5836,6.5836,0,6.3693,6.381,6.3962,6.4166,6.4298,6.4347,6.4513,6.462,6.4779,6.493,6.5075,6.5279,6.545,6.5607,6.5786,6.5872,6.5906,6.5915,6.5911,6.5935,6.5844,6.5805,6.5885,6.5885,6.5885,6.5885,6.5885,6.5885,6.376,6.3938,6.4023,6.4265,6.4381,6.4562,6.4653,6.478,6.4902,6.5126,6.527,6.5372,6.5527,6.5718,6.5878,6.592,6.5983,6.5986,6.6035,6.5947,6.5941,6.5935,6.5899,6.5997,6.5998,6.6116,6.6117,6.6118]}]]